KINEIS-4E

Last updated on Thu Aug 20 2026 00:02:53 GMT+0000 (Coordinated Universal Time)

1 63300U 25056A 26231.58868339 .00001232 00000+0 20222-3 0 9992 2 63300 97.9103 353.7505 0001052 21.1664 338.9587 14.72386150 76451
UTC large
Height (km)
Speed (km/s)
/
Latitude / Longitude
Inclination (degrees)
Orbital Period (minutes)
Azimuth
Elevation
Range (km)
Doppler Factor

Next 0 passes for location: London (51.5072 / 0.1276)

No passes found over London.
KINEIS-4E